Total_Precipitation_Accumulation
0.03 0.05 0.08 0.11 0.11 0.15 0.19 0.22 0.34 0.27 0.28 0.37 0.40 0.43 0.41 0.34 0.29 0.25 0.21 0.19 0.19 0.22 0.25 0.25 0.25 0.26 0.26 0.29 0.33 0.37 0.43 0.53 0.58 0.53 0.47 0.42 0.35 0.28 0.27 0.27 0.25 0.28 0.36 0.43
0.04 0.10 0.13 0.14 0.14 0.13 0.12 0.12 0.17 0.20 0.25 0.22 0.22 0.27 0.30 0.28 0.26 0.24 0.23 0.20 0.17 0.17 0.17 0.20 0.21 0.20 0.21 0.23 0.25 0.27 0.32 0.38 0.45 0.47 0.44 0.39 0.32 0.28 0.25 0.24 0.24 0.29 0.35 0.38
0.04 0.09 0.13 0.21 0.18 0.13 0.09 0.07 0.13 0.26 0.30 0.21 0.22 0.26 0.27 0.22 0.19 0.18 0.15 0.12 0.10 0.12 0.12 0.11 0.10 0.12 0.17 0.19 0.21 0.28 0.31 0.34 0.40 0.47 0.46 0.37 0.27 0.26 0.27 0.28 0.31 0.36 0.35 0.34
0.08 0.11 0.22 0.18 0.07 0.05 0.07 0.05 0.05 0.14 0.16 0.15 0.16 0.15 0.12 0.10 0.09 0.08 0.06 0.05 0.04 0.04 0.05 0.05 0.05 0.09 0.14 0.18 0.26 0.31 0.35 0.39 0.44 0.47 0.48 0.44 0.38 0.36 0.40 0.42 0.43 0.45 0.43 0.38
0.06 0.10 0.13 0.07 0.05 0.06 0.08 0.08 0.03 0.06 0.08 0.07 0.05 0.07 0.08 0.04 0.02 0.01 0.01 0.01 0.01 0.02 0.03 0.04 0.07 0.12 0.19 0.28 0.36 0.40 0.42 0.43 0.46 0.52 0.59 0.59 0.54 0.49 0.49 0.52 0.48 0.49 0.48 0.44
0.05 0.10 0.13 0.07 0.05 0.05 0.06 0.15 0.07 0.04 0.04 0.03 0.03 0.10 0.13 0.04 0.00 0.00 0.00 0.01 0.01 0.03 0.05 0.08 0.12 0.16 0.25 0.35 0.43 0.48 0.47 0.45 0.47 0.53 0.61 0.68 0.68 0.62 0.58 0.60 0.53 0.49 0.47 0.48
0.06 0.08 0.06 0.03 0.04 0.04 0.12 0.19 0.03 0.01 0.01 0.01 0.03 0.07 0.06 0.02 0.00 0.00 0.01 0.01 0.02 0.06 0.09 0.11 0.13 0.18 0.29 0.39 0.46 0.45 0.44 0.47 0.54 0.61 0.68 0.72 0.78 0.78 0.75 0.69 0.64 0.60 0.55 0.57
0.06 0.09 0.10 0.02 0.01 0.02 0.04 0.03 0.01 0.01 0.01 0.01 0.01 0.01 0.00 0.00 0.01 0.01 0.01 0.02 0.04 0.09 0.13 0.13 0.14 0.22 0.32 0.38 0.41 0.45 0.48 0.54 0.61 0.69 0.66 0.71 0.92 0.96 0.99 0.94 0.80 0.73 0.71 0.70
0.03 0.05 0.02 0.01 0.00 0.01 0.01 0.01 0.01 0.01 0.01 0.01 0.01 0.01 0.01 0.01 0.01 0.01 0.01 0.03 0.06 0.11 0.15 0.19 0.25 0.32 0.40 0.38 0.42 0.50 0.59 0.65 0.65 0.66 0.73 0.83 0.93 0.97 0.97 0.94 0.89 0.81 0.80 0.78
0.03 0.02 0.01 0.01 0.01 0.01 0.00 0.00 0.00 0.00 0.01 0.01 0.01 0.01 0.01 0.01 0.02 0.02 0.03 0.06 0.10 0.16 0.25 0.33 0.41 0.44 0.44 0.45 0.52 0.63 0.72 0.77 0.79 0.78 0.76 0.81 0.94 0.96 0.94 0.88 0.86 0.85 0.85 0.81
0.04 0.02 0.01 0.01 0.01 0.00 0.00 0.00 0.00 0.00 0.01 0.01 0.02 0.02 0.02 0.02 0.03 0.04 0.05 0.08 0.13 0.22 0.32 0.36 0.43 0.53 0.55 0.63 0.75 0.83 0.81 0.78 0.80 0.84 0.92 0.95 0.94 0.95 0.93 0.91 0.80 0.78 0.80 0.82
0.04 0.04 0.04 0.03 0.01 0.00 0.00 0.00 0.01 0.01 0.01 0.02 0.03 0.03 0.02 0.03 0.03 0.04 0.07 0.11 0.17 0.25 0.33 0.39 0.48 0.57 0.62 0.72 0.84 0.96 0.94 0.85 0.86 0.88 0.91 0.96 0.96 0.87 0.75 0.67 0.57 0.55 0.59 0.59
0.04 0.03 0.03 0.02 0.01 0.01 0.01 0.01 0.01 0.02 0.03 0.03 0.03 0.03 0.04 0.04 0.04 0.06 0.08 0.12 0.18 0.25 0.31 0.38 0.47 0.55 0.64 0.73 0.81 0.89 0.90 0.87 0.85 0.84 0.86 0.90 0.93 0.92 0.88 0.71 0.55 0.46 0.43 0.42
0.02 0.02 0.01 0.01 0.01 0.01 0.02 0.02 0.03 0.04 0.04 0.05 0.05 0.05 0.05 0.06 0.07 0.09 0.12 0.15 0.19 0.24 0.29 0.38 0.50 0.57 0.64 0.72 0.81 0.84 0.84 0.81 0.81 0.80 0.79 0.80 0.81 0.84 0.87 0.82 0.71 0.59 0.47 0.41
0.02 0.02 0.02 0.02 0.02 0.03 0.04 0.05 0.05 0.06 0.07 0.07 0.07 0.08 0.09 0.11 0.12 0.14 0.16 0.20 0.24 0.27 0.31 0.42 0.56 0.62 0.67 0.76 0.82 0.81 0.82 0.78 0.73 0.73 0.70 0.73 0.76 0.76 0.77 0.80 0.77 0.70 0.58 0.52
0.05 0.05 0.06 0.06 0.06 0.07 0.07 0.08 0.08 0.09 0.09 0.08 0.08 0.09 0.11 0.13 0.15 0.16 0.19 0.24 0.33 0.36 0.40 0.50 0.59 0.64 0.76 0.83 0.84 0.82 0.76 0.70 0.70 0.69 0.67 0.70 0.75 0.76 0.76 0.78 0.79 0.76 0.63 0.55
0.11 0.12 0.13 0.12 0.11 0.10 0.10 0.11 0.12 0.12 0.12 0.11 0.10 0.09 0.11 0.15 0.19 0.22 0.24 0.27 0.33 0.36 0.44 0.59 0.64 0.68 0.81 0.92 0.90 0.86 0.75 0.63 0.63 0.67 0.65 0.65 0.72 0.74 0.72 0.72 0.73 0.68 0.56 0.47
0.14 0.15 0.17 0.17 0.16 0.16 0.16 0.16 0.16 0.16 0.16 0.15 0.13 0.13 0.16 0.21 0.27 0.30 0.31 0.33 0.36 0.35 0.40 0.53 0.64 0.71 0.77 0.92 0.97 0.88 0.77 0.67 0.61 0.62 0.63 0.61 0.64 0.71 0.69 0.66 0.66 0.62 0.54 0.47
0.14 0.17 0.19 0.21 0.23 0.24 0.25 0.25 0.24 0.22 0.21 0.21 0.20 0.21 0.23 0.26 0.31 0.32 0.34 0.40 0.47 0.51 0.49 0.53 0.66 0.71 0.74 0.86 1.00 0.93 0.78 0.69 0.60 0.56 0.60 0.59 0.60 0.63 0.60 0.59 0.61 0.58 0.50 0.47
0.21 0.25 0.29 0.32 0.34 0.36 0.37 0.36 0.35 0.33 0.31 0.30 0.30 0.29 0.30 0.31 0.35 0.38 0.41 0.44 0.50 0.61 0.64 0.65 0.60 0.62 0.71 0.81 0.92 0.88 0.80 0.71 0.62 0.56 0.57 0.62 0.62 0.58 0.51 0.48 0.51 0.49 0.44 0.39
0.32 0.36 0.39 0.41 0.42 0.41 0.41 0.40 0.39 0.37 0.35 0.34 0.36 0.37 0.37 0.36 0.38 0.44 0.51 0.53 0.51 0.56 0.60 0.65 0.59 0.55 0.58 0.73 0.85 0.81 0.77 0.74 0.67 0.58 0.59 0.64 0.61 0.53 0.44 0.42 0.43 0.40 0.38 0.35
0.32 0.34 0.35 0.36 0.36 0.34 0.31 0.31 0.32 0.32 0.31 0.32 0.33 0.36 0.41 0.44 0.45 0.48 0.48 0.55 0.56 0.58 0.57 0.57 0.54 0.53 0.53 0.62 0.69 0.75 0.72 0.73 0.68 0.59 0.55 0.56 0.56 0.49 0.39 0.37 0.36 0.33 0.30 0.30
0.17 0.17 0.18 0.19 0.20 0.19 0.16 0.16 0.19 0.23 0.26 0.29 0.33 0.40 0.50 0.54 0.55 0.61 0.56 0.47 0.50 0.53 0.52 0.50 0.48 0.46 0.45 0.46 0.53 0.59 0.60 0.65 0.63 0.55 0.49 0.44 0.44 0.37 0.32 0.31 0.31 0.27 0.26 0.23
0.04 0.05 0.05 0.07 0.10 0.12 0.13 0.14 0.16 0.18 0.21 0.23 0.25 0.33 0.50 0.60 0.56 0.50 0.49 0.48 0.49 0.45 0.44 0.41 0.37 0.34 0.34 0.35 0.44 0.51 0.54 0.57 0.58 0.54 0.48 0.42 0.38 0.33 0.32 0.31 0.27 0.24 0.23 0.20
0.02 0.03 0.04 0.08 0.13 0.17 0.19 0.20 0.20 0.20 0.25 0.28 0.26 0.30 0.44 0.55 0.59 0.50 0.42 0.42 0.45 0.38 0.37 0.38 0.35 0.34 0.34 0.38 0.44 0.49 0.51 0.52 0.53 0.55 0.49 0.41 0.36 0.32 0.30 0.30 0.26 0.24 0.22 0.17
0.04 0.06 0.09 0.13 0.19 0.26 0.29 0.33 0.36 0.39 0.47 0.52 0.46 0.44 0.48 0.50 0.50 0.47 0.43 0.39 0.38 0.35 0.32 0.35 0.34 0.34 0.34 0.38 0.44 0.47 0.49 0.50 0.50 0.50 0.46 0.42 0.38 0.33 0.32 0.29 0.25 0.20 0.16 0.13
0.09 0.12 0.18 0.22 0.25 0.32 0.40 0.47 0.55 0.62 0.71 0.80 0.81 0.73 0.66 0.61 0.56 0.50 0.44 0.40 0.36 0.33 0.32 0.33 0.35 0.34 0.33 0.36 0.41 0.48 0.52 0.51 0.45 0.42 0.42 0.41 0.41 0.35 0.29 0.26 0.22 0.18 0.14 0.13